Wind_Speed
60 59 59 58 56 55 54 52 50 50 49 48 50 50 50 51 54 58 58 56 56 54 53 53 54 57 55 52 51 50 50 48 47 47 46 47 50 51 53 55 56 57 58 58 57 58 58 55 54 54 53 51 49 47 44 40 36 34 33 32 31 27 28 32 35 38 38 37 34 33 35 36 36 33 30 30 31 32 31 33 35 36 37 39 40 36
58 57 57 57 55 52 51 51 50 49 51 52 51 51 52 55 58 61 61 58 56 56 55 50 49 52 52 51 51 50 50 48 48 46 43 44 47 49 52 54 55 55 56 58 58 57 56 54 52 52 51 49 49 47 43 39 36 34 33 33 33 32 34 38 38 39 40 39 37 36 36 36 38 36 32 31 31 31 31 34 36 38 38 39 39 37
56 56 57 56 53 49 47 50 52 50 51 55 55 56 58 60 61 62 62 59 56 55 52 45 45 49 51 52 53 52 51 50 51 49 46 45 47 49 51 53 55 55 55 57 58 57 55 53 51 51 51 50 50 47 44 44 42 41 43 42 40 37 38 42 43 43 43 42 42 41 38 37 39 38 35 34 33 32 32 35 38 38 38 38 37 37
55 57 57 54 49 45 43 47 53 51 49 53 56 57 58 58 59 60 60 56 52 50 46 43 45 47 49 52 53 55 55 53 54 54 52 49 48 51 52 53 55 55 55 57 58 56 54 52 50 51 52 50 48 45 43 42 40 42 44 43 42 39 38 42 47 49 50 49 47 46 43 38 39 39 37 35 35 34 34 36 38 38 37 35 35 35
54 56 55 50 46 42 41 43 49 53 52 52 53 55 56 55 54 55 55 53 50 48 45 46 47 46 49 54 55 57 57 57 57 58 58 55 51 52 53 53 54 55 55 57 58 55 52 51 50 51 52 50 47 42 38 37 38 43 43 39 39 39 38 41 46 49 52 54 50 49 49 42 39 40 38 36 36 36 35 36 39 40 39 36 35 36
54 54 52 48 43 40 39 39 43 51 56 55 54 57 59 57 56 58 59 57 54 51 50 52 52 50 53 57 59 60 60 60 59 59 61 59 55 53 53 53 52 53 54 54 55 54 51 50 49 50 51 49 43 34 33 39 42 43 42 38 37 38 38 41 44 44 48 53 52 52 51 45 40 40 38 37 37 37 37 37 38 40 42 40 38 38
52 52 49 45 42 39 38 36 38 44 52 56 59 61 61 61 62 63 64 62 59 58 57 56 56 55 56 58 60 61 60 58 58 57 57 59 57 53 52 51 47 48 50 50 51 51 50 49 48 49 48 45 36 27 33 45 46 41 40 38 36 36 38 40 42 42 45 50 53 53 50 44 40 38 37 36 36 37 38 40 40 39 40 41 42 41
50 50 47 44 41 38 37 36 37 40 43 49 55 59 60 61 62 62 62 62 60 59 57 56 55 54 53 54 55 56 55 53 53 52 51 55 58 55 51 47 43 43 46 48 48 48 48 48 47 45 42 37 29 27 37 49 49 41 38 39 37 37 38 39 42 43 43 47 52 54 51 44 40 39 38 38 38 39 40 43 45 43 41 40 42 44
50 49 46 43 40 38 37 36 37 38 38 43 48 51 54 55 56 56 57 57 57 55 53 52 53 51 49 50 51 51 51 50 50 50 51 53 55 56 53 45 41 41 42 45 46 46 47 46 44 40 36 30 25 29 39 49 51 44 39 40 39 38 37 37 41 44 45 45 49 54 55 49 43 41 42 42 42 43 42 42 43 44 43 41 41 45
48 47 45 43 40 38 37 37 38 36 37 42 45 46 47 48 49 51 51 52 52 48 47 49 51 49 46 46 47 47 47 47 48 50 52 53 52 53 52 44 39 39 41 43 45 45 45 44 41 37 31 26 28 34 41 49 53 47 43 42 40 39 37 35 38 42 44 45 46 52 56 55 49 45 45 46 46 46 43 42 42 43 44 43 43 45
48 47 45 43 40 37 37 38 39 38 39 43 44 42 42 43 45 47 47 48 46 43 44 48 50 47 43 43 43 43 43 45 47 49 51 53 52 51 48 40 35 37 39 40 43 45 42 39 36 31 25 23 30 37 41 47 51 48 43 43 42 41 38 34 35 38 40 43 44 48 54 56 53 50 49 48 47 47 45 45 46 46 48 50 50 49
48 46 44 43 41 38 38 40 41 40 40 42 42 39 38 39 41 44 45 44 41 41 44 47 46 44 42 40 41 42 43 45 48 49 49 52 53 49 42 36 31 32 35 37 40 41 37 33 30 25 20 19 24 32 37 43 47 45 42 40 41 41 37 34 34 35 37 39 41 45 50 54 54 53 51 50 49 48 47 47 48 49 51 53 54 53
49 47 46 45 43 40 39 42 43 42 39 40 41 39 38 38 38 40 40 38 37 39 43 45 44 44 41 40 42 44 46 47 48 50 49 48 49 44 36 31 28 29 31 33 35 36 34 30 28 28 27 25 25 28 34 41 43 43 41 38 37 37 35 34 34 34 36 37 40 42 46 51 55 55 54 54 53 53 52 52 51 51 51 52 53 53
49 48 47 45 43 41 42 44 44 42 40 40 41 40 39 39 38 38 38 37 37 39 43 45 45 45 43 43 44 45 48 49 48 49 46 41 39 34 30 28 26 26 27 30 31 30 29 28 29 34 38 37 35 34 37 41 43 43 41 37 36 35 34 35 35 36 37 38 40 42 44 48 53 55 56 57 56 56 57 56 54 53 52 52 52 52
49 48 46 44 43 43 44 44 44 43 41 40 41 41 39 40 40 40 40 39 39 40 44 46 46 46 45 44 45 45 47 48 47 46 40 34 29 25 24 25 24 23 24 27 26 24 25 28 31 34 38 40 38 39 42 41 41 42 41 37 37 36 36 36 37 37 38 39 41 43 46 48 50 54 57 58 59 59 59 59 57 54 53 53 53 52
51 49 48 47 44 44 45 46 45 44 43 42 42 42 41 42 42 42 42 41 41 42 45 47 47 46 46 45 45 45 47 45 44 42 35 29 24 20 20 23 24 23 25 28 25 25 29 30 31 32 36 39 38 38 40 38 37 41 40 38 37 36 35 36 39 39 39 40 41 42 45 48 50 52 55 58 59 60 59 59 58 56 53 53 53 53
53 51 50 48 46 44 45 48 47 45 45 44 43 43 44 45 44 44 45 43 42 42 45 48 48 46 46 46 45 45 44 41 38 37 31 24 21 22 24 27 28 26 27 28 28 30 34 34 33 32 35 37 35 33 33 34 36 39 39 38 38 37 35 36 39 42 42 41 41 41 42 44 47 50 52 54 57 59 59 58 58 56 53 50 50 51
54 52 51 50 48 46 46 49 48 46 47 45 43 45 47 47 46 46 46 45 44 43 45 49 48 46 45 45 45 45 42 38 34 31 27 21 21 25 27 28 29 28 29 30 31 34 38 37 36 35 35 35 33 31 31 32 33 37 37 37 38 38 38 38 38 40 41 40 40 40 40 41 43 45 48 50 52 56 58 59 60 59 56 54 53 53
54 52 52 51 50 48 48 49 49 48 48 47 46 47 48 48 47 47 47 46 46 45 46 49 49 46 43 43 45 44 39 35 31 26 21 21 24 27 27 27 28 28 28 31 33 37 39 37 36 37 36 34 33 33 34 32 32 35 35 35 37 38 37 35 34 36 39 39 38 36 37 39 39 41 45 46 47 49 53 56 59 60 61 61 60 60
53 52 52 52 52 51 49 49 50 50 49 48 49 48 47 48 48 48 48 48 47 47 47 49 49 46 43 42 42 40 32 28 25 19 18 23 27 29 29 28 29 29 27 29 32 37 39 37 35 35 35 35 34 35 35 34 32 32 32 33 36 36 34 31 29 31 35 36 34 33 34 34 34 37 42 44 45 47 48 49 53 55 57 59 59 60
56 52 53 53 54 52 49 49 52 52 51 51 49 48 47 48 48 48 49 49 49 49 48 48 48 45 43 41 37 33 27 21 18 15 17 23 27 30 31 30 30 29 28 28 31 36 38 38 36 35 35 36 35 34 34 31 28 29 31 35 37 36 32 29 28 29 31 33 32 33 34 34 34 39 44 45 47 49 48 48 50 52 53 53 54 55
60 57 56 56 56 53 50 51 54 53 53 52 50 48 48 48 49 49 49 50 50 50 49 48 47 45 44 40 33 28 25 21 19 19 20 23 28 32 33 32 30 29 28 29 31 34 37 38 37 38 38 37 36 35 31 24 22 24 28 33 37 37 33 31 31 30 30 30 30 32 35 37 40 43 44 45 48 51 51 51 51 52 54 54 53 53
60 57 57 57 56 53 52 54 55 54 54 53 50 49 49 49 50 50 49 50 51 51 50 47 46 45 42 36 30 27 27 26 26 23 19 21 29 35 36 34 31 30 30 31 32 34 37 39 40 41 41 39 38 37 33 28 26 28 29 32 35 35 33 33 33 31 29 26 26 30 34 37 42 45 46 47 49 51 53 53 53 53 54 55 56 55
58 55 55 55 54 52 53 54 54 54 54 52 51 51 51 51 51 50 50 51 51 51 51 48 46 44 38 32 30 30 31 31 30 26 22 22 29 36 40 37 34 33 33 34 35 36 37 40 42 44 44 42 41 41 39 36 37 38 35 34 35 33 33 35 35 33 30 27 27 31 33 36 41 44 46 49 50 51 53 54 54 55 55 55 56 56
57 56 54 54 53 51 53 55 54 53 53 53 52 52 52 52 51 51 51 51 50 50 50 48 45 41 35 31 31 32 34 36 35 33 33 33 33 37 40 39 37 37 37 36 38 39 38 40 43 46 47 46 44 45 44 42 43 44 41 37 36 35 35 37 37 35 33 32 31 33 34 37 39 37 38 45 48 49 51 52 53 54 55 55 55 54
58 57 54 53 52 52 54 56 54 52 52 53 53 51 51 51 51 52 52 49 48 48 46 43 38 33 30 32 33 33 37 40 41 39 40 41 39 38 40 39 39 41 41 40 41 42 42 42 44 46 48 48 47 48 48 45 45 47 46 43 39 37 38 40 39 37 35 35 35 35 35 37 39 34 32 39 45 47 49 50 51 52 52 52 52 52
63 60 57 55 54 54 55 53 51 51 52 53 52 51 51 52 52 52 51 48 45 43 41 39 33 27 28 33 35 35 38 41 42 40 39 41 43 43 42 41 41 43 44 43 43 44 45 46 46 47 48 49 49 49 48 45 44 45 46 45 42 39 38 38 38 37 36 35 37 38 37 38 41 39 37 40 43 44 47 49 50 50 50 49 48 48
67 65 62 58 57 56 54 52 51 52 53 53 52 52 53 53 52 51 49 45 42 41 40 38 32 27 29 33 36 37 39 41 41 40 38 39 43 45 44 44 44 45 46 46 45 44 45 47 49 50 51 52 52 50 48 45 44 44 43 43 43 44 42 38 35 35 34 33 35 37 38 39 42 43 43 44 42 40 42 45 45 45 45 44 43 43
65 64 62 60 58 58 56 56 55 55 54 53 52 53 53 52 50 48 46 43 41 42 41 36 30 28 29 31 35 38 38 38 40 41 40 40 43 45 45 45 45 46 47 47 47 45 43 45 50 53 55 56 56 55 52 49 47 45 45 45 45 45 43 39 36 35 35 34 33 35 39 42 44 44 44 46 44 40 39 41 43 44 44 43 42 42
62 61 60 59 59 58 56 56 55 54 53 53 53 53 52 50 49 46 44 42 41 41 38 31 28 29 30 30 34 37 37 36 37 40 43 43 45 47 47 46 46 47 48 49 48 46 44 44 47 52 56 58 59 59 58 55 51 48 47 48 46 41 39 38 38 37 37 36 35 36 41 45 47 48 47 47 46 43 41 43 44 45 45 44 43 43
59 57 56 56 57 56 54 54 53 51 51 52 52 51 50 49 48 46 44 42 39 36 33 30 29 31 33 33 34 35 36 37 36 38 43 44 44 45 47 47 48 49 50 50 50 48 46 44 45 48 54 57 60 62 63 61 56 52 51 51 48 42 38 38 40 39 39 40 38 38 42 46 48 49 49 48 47 45 44 44 43 42 42 43 43 44
58 56 55 56 57 55 54 54 52 50 50 52 51 50 50 49 48 46 44 40 35 32 31 31 30 31 32 34 36 35 34 36 36 36 39 42 43 42 43 45 47 49 51 52 51 51 48 46 44 45 49 54 58 61 64 64 61 58 57 55 50 45 42 42 42 42 43 44 43 41 42 45 47 47 47 47 48 47 47 46 44 42 42 44 45 45
58 57 57 58 57 56 55 53 51 51 52 52 52 52 52 51 49 47 43 39 35 32 33 34 33 33 33 35 37 37 35 34 34 35 36 39 42 42 42 43 44 45 48 50 50 50 49 47 45 44 45 49 54 58 61 63 63 61 60 58 52 47 47 47 46 46 47 48 48 47 44 43 44 45 46 47 48 49 48 47 46 45 46 48 49 49
58 57 57 58 57 57 56 53 52 52 52 52 53 53 52 51 50 48 45 40 37 36 38 39 37 35 35 35 37 39 39 37 37 37 37 38 40 41 41 43 44 44 45 46 48 49 48 48 46 45 44 46 50 54 57 60 61 61 60 58 53 50 51 51 49 50 50 49 49 50 50 48 47 48 48 48 49 49 48 48 48 48 49 50 51 53
59 57 57 57 57 57 57 55 54 52 51 52 54 53 52 51 50 48 47 44 41 40 43 43 41 39 36 34 34 37 40 41 40 38 39 39 39 40 40 41 43 44 44 44 46 47 47 47 47 46 44 45 48 52 54 56 58 58 57 55 53 53 55 54 52 53 53 49 46 46 49 50 50 49 49 50 49 48 48 50 50 50 51 51 51 53
60 60 59 59 58 58 57 57 55 53 52 53 54 53 52 51 50 49 48 47 44 43 45 46 46 44 40 36 34 34 37 39 39 38 37 37 38 39 40 41 42 43 42 41 42 44 44 45 45 45 45 45 47 50 51 52 54 55 54 55 55 55 57 56 54 56 57 54 49 47 46 47 48 48 48 49 49 50 50 50 51 53 53 53 53 55
58 60 61 61 61 59 58 58 56 54 53 53 53 53 53 52 51 50 49 48 46 45 47 49 49 48 44 39 36 36 37 38 39 40 40 40 39 39 40 41 43 43 41 39 39 41 41 42 42 44 45 45 46 48 49 50 52 53 54 56 58 58 59 58 57 58 61 59 55 52 49 47 48 49 49 48 49 51 51 52 54 56 57 57 57 58
55 58 61 62 62 61 60 60 59 56 54 54 55 55 55 54 54 53 51 49 47 45 48 51 52 52 49 45 41 40 41 41 42 44 45 45 44 42 41 42 42 42 41 39 39 39 39 39 41 42 44 45 46 46 48 49 52 54 55 58 61 61 62 62 61 60 62 62 58 55 53 51 49 49 49 48 49 50 51 53 56 59 60 59 59 58
56 60 63 64 63 63 62 62 61 60 58 58 59 58 57 57 56 55 53 50 47 45 47 52 55 54 53 50 48 47 46 46 47 48 48 48 47 45 45 44 43 43 43 41 40 40 39 38 39 41 43 45 45 46 47 49 52 55 57 60 63 64 65 67 66 64 63 62 60 57 56 55 54 54 52 51 51 52 53 54 57 59 60 61 60 59
61 63 64 63 62 62 62 61 61 60 59 59 60 59 58 58 57 57 54 50 48 47 48 52 56 57 55 54 53 52 51 50 50 50 49 49 48 48 47 47 45 44 44 43 42 41 40 38 38 40 42 44 45 46 48 51 53 56 58 60 63 65 66 70 72 70 66 64 62 59 57 57 57 58 57 56 56 56 56 57 58 60 61 61 61 60
64 65 64 62 62 61 61 61 60 60 59 59 59 58 59 59 59 58 56 53 51 50 50 53 57 58 58 57 55 54 53 51 50 49 49 49 49 49 48 49 48 46 44 44 44 42 41 39 38 39 41 43 44 46 49 52 54 57 59 61 63 66 68 71 74 74 71 68 66 63 61 60 59 60 60 60 61 61 60 59 59 59 59 59 58 58
67 67 65 64 64 63 62 62 61 61 60 60 60 61 61 61 61 60 58 56 54 53 52 54 57 59 60 59 58 57 55 52 49 48 48 49 49 49 49 50 50 49 45 43 43 43 41 39 39 39 41 43 44 46 49 53 56 58 61 62 64 66 69 71 75 75 73 71 70 69 67 65 63 63 64 64 64 64 64 62 60 58 57 57 56 56
67 67 65 64 65 65 64 64 63 63 64 64 63 64 64 64 63 62 61 59 57 55 53 54 57 59 60 61 60 59 57 54 52 50 49 48 48 49 49 50 51 51 50 46 44 42 41 40 40 40 41 43 45 47 50 53 57 60 62 64 65 67 69 72 75 77 75 73 72 72 72 70 68 66 66 67 66 66 66 65 64 62 60 59 58 57
63 63 61 60 60 61 61 61 62 63 63 64 64 66 65 64 63 63 61 59 57 55 53 54 57 59 60 61 61 60 57 55 54 53 52 49 48 48 48 49 50 52 53 52 49 46 44 42 41 41 42 44 46 47 50 54 58 61 63 65 67 68 70 72 74 77 78 77 74 73 73 74 73 70 69 68 68 67 67 66 66 66 65 64 62 61
55 55 54 53 54 55 56 57 58 60 61 63 65 66 65 63 62 60 58 57 56 54 53 53 55 57 59 61 61 60 59 57 56 56 54 51 48 47 47 48 49 50 52 54 54 52 50 48 46 44 44 45 47 48 51 55 59 63 65 67 68 69 71 73 74 76 79 80 78 76 75 75 76 75 74 72 71 70 69 68 67 67 67 66 66 65
49 49 48 48 49 51 52 53 54 57 60 63 64 64 62 60 58 57 55 54 53 52 51 51 52 54 56 58 59 59 58 56 55 56 55 52 49 47 47 48 48 50 52 53 54 54 53 51 50 48 47 47 48 49 51 55 60 65 66 68 69 70 72 74 75 76 78 79 81 80 79 77 77 77 77 77 75 75 74 73 72 71 70 70 70 70
47 47 47 47 48 49 50 51 53 55 58 59 60 61 59 56 55 54 53 52 51 50 49 48 49 51 52 54 55 55 54 53 52 52 53 52 49 48 48 48 49 50 52 53 52 53 53 52 51 50 49 49 49 50 51 55 61 66 69 70 71 72 73 75 77 78 79 80 81 82 82 82 80 80 79 79 79 78 77 77 76 76 75 75 74 74
43 44 46 47 49 50 52 52 53 54 55 55 56 57 57 55 53 52 51 50 49 48 47 46 47 48 50 51 53 54 53 51 50 49 49 50 50 49 48 48 49 50 52 52 52 53 53 53 52 51 51 51 50 51 52 54 60 67 72 74 74 74 75 75 77 79 81 83 83 84 84 84 84 83 82 82 82 81 80 79 79 78 78 79 78 78
39 41 43 44 47 49 51 52 53 54 55 55 54 54 54 53 51 49 48 47 47 46 46 45 45 45 46 47 48 50 51 51 50 49 49 49 50 51 50 49 49 50 51 52 53 54 54 54 54 53 53 53 52 52 53 54 58 65 73 77 78 77 77 78 78 80 82 84 86 87 87 86 86 86 85 85 85 84 83 82 82 82 81 81 82 81
36 38 39 41 43 45 47 50 52 54 55 55 54 52 50 50 48 47 46 45 45 45 45 45 45 45 45 45 45 46 48 49 49 49 50 50 51 52 52 52 51 51 51 52 53 54 55 56 56 55 55 55 55 55 55 55 57 62 69 77 81 81 80 80 81 82 83 84 86 87 88 88 88 88 89 89 88 88 88 87 86 86 86 85 85 85
35 36 37 38 39 41 43 46 49 51 53 53 52 50 48 47 46 45 45 44 44 44 44 45 45 45 46 46 47 47 48 49 50 51 52 52 52 53 54 54 55 54 54 53 54 54 55 56 57 57 57 57 57 58 58 58 58 60 64 72 80 84 84 83 83 84 85 86 86 87 88 88 89 90 90 91 91 91 91 91 91 91 91 90 90 90
Wind_Direction
262 265 268 270 271 272 270 266 258 251 247 246 246 245 247 247 248 248 246 244 246 248 251 257 263 266 268 267 267 266 265 265 263 262 262 262 263 262 262 262 261 261 261 261 262 262 263 263 263 264 264 264 263 263 261 260 265 265 262 261 257 248 241 239 239 238 236 230 229 234 232 233 240 244 246 250 247 243 245 249 248 247 248 245 241 241
263 265 267 268 270 270 268 264 259 251 244 242 243 244 246 249 251 251 250 248 249 252 253 256 260 265 268 268 267 266 266 265 264 262 261 261 262 262 262 262 261 262 262 262 262 261 262 262 263 263 263 262 260 260 256 254 260 263 261 256 249 240 229 228 232 234 233 227 223 229 231 231 237 242 245 249 249 246 246 247 246 246 245 243 242 243
263 265 266 268 271 271 266 259 256 253 247 243 245 247 250 253 255 257 256 254 254 256 256 255 256 260 264 266 268 267 266 266 266 264 261 258 259 261 262 263 264 263 263 264 263 263 263 262 262 262 262 260 259 257 253 254 259 262 263 255 244 241 235 230 233 231 227 225 225 228 230 232 235 239 242 248 250 248 245 243 242 243 242 243 244 245
262 264 266 269 272 271 264 254 250 251 249 246 246 248 250 252 255 257 258 257 256 257 258 256 254 256 260 263 265 266 266 267 267 267 265 260 259 260 261 263 265 265 265 265 265 265 265 265 264 262 262 261 259 259 256 257 258 257 262 257 242 239 239 233 234 232 227 226 227 227 228 232 236 238 239 244 248 248 245 242 241 240 240 243 247 248
262 264 267 271 271 268 262 254 248 246 246 247 247 245 246 247 249 252 254 254 253 254 255 255 253 254 260 263 264 266 268 269 269 271 270 266 262 260 260 260 262 264 265 267 268 268 267 266 265 263 263 261 260 261 261 259 257 254 260 258 241 234 234 231 231 233 230 228 227 226 227 232 238 241 240 242 246 247 246 244 242 241 241 246 250 252
262 265 269 271 270 267 261 257 251 245 243 245 246 245 247 248 248 251 254 254 255 255 254 255 256 256 259 263 265 266 267 269 270 271 272 272 268 264 262 260 261 263 266 267 269 270 268 266 264 262 261 259 259 261 262 260 257 255 257 253 240 234 232 231 233 234 232 228 225 224 227 232 238 241 241 242 244 243 242 241 240 240 242 244 247 250
262 266 269 270 270 267 262 259 255 250 245 245 246 248 250 251 252 254 257 259 260 260 259 259 260 260 261 264 265 266 267 268 269 270 272 274 272 268 265 263 263 265 267 267 267 267 267 264 260 258 256 257 256 248 247 251 250 251 251 243 237 237 234 231 232 234 233 229 224 221 223 228 233 237 240 242 243 241 239 238 239 240 239 240 242 246
262 265 268 269 269 267 264 261 258 255 251 249 248 250 252 253 254 256 259 261 262 263 263 263 262 262 262 262 263 266 268 269 270 271 272 274 274 272 268 266 265 265 265 266 265 263 262 260 258 256 254 254 248 232 235 243 242 242 243 236 233 236 233 229 229 231 233 230 225 222 222 224 228 233 237 239 240 240 239 239 240 242 242 241 242 245
262 265 268 269 268 267 264 261 261 261 259 256 253 252 253 255 256 258 260 262 263 264 266 267 265 262 260 261 263 266 268 271 272 272 271 270 272 274 273 271 269 267 266 265 264 262 261 259 257 255 252 245 230 222 232 241 240 234 230 229 230 232 231 228 227 229 233 230 226 224 224 224 225 228 233 235 238 239 238 239 241 243 244 246 248 250
262 264 266 267 268 267 265 263 263 263 261 259 256 255 256 258 259 260 261 262 264 266 268 268 267 265 264 265 267 269 271 273 273 273 272 270 269 271 272 273 272 270 267 263 260 258 256 255 253 250 245 228 209 213 227 238 238 228 220 224 227 230 231 230 229 232 234 234 230 227 225 226 226 227 231 234 237 238 239 240 242 244 245 249 253 255
260 262 264 266 267 266 262 261 261 261 260 259 260 261 261 261 261 262 262 264 266 269 268 267 268 268 269 269 271 273 274 275 275 274 276 276 274 272 273 275 272 268 264 258 254 252 251 251 251 247 240 218 208 217 224 231 233 224 219 223 226 231 233 232 235 237 237 238 235 230 228 228 227 227 230 232 236 239 241 242 243 245 248 252 256 258
257 258 261 262 263 261 259 259 259 259 260 262 264 264 263 263 263 263 263 265 268 268 266 265 267 270 271 272 274 275 275 276 277 276 276 276 276 276 278 279 270 260 258 255 252 251 248 246 245 235 225 217 218 227 229 229 228 222 222 225 224 228 231 232 237 240 240 240 239 235 232 230 227 226 228 232 235 238 240 242 245 248 251 254 257 260
255 257 259 260 262 262 259 257 259 260 261 264 264 264 263 263 262 264 265 265 265 264 264 266 268 270 272 274 277 279 279 278 278 278 277 277 279 279 279 276 259 246 250 253 250 246 241 238 229 211 199 199 208 222 231 232 228 223 225 226 222 223 229 235 239 242 243 244 242 240 236 232 229 227 228 232 235 238 240 245 249 251 253 256 259 262
257 259 261 262 263 262 257 255 258 261 261 261 262 263 264 264 263 263 263 264 263 263 265 268 270 273 274 276 278 280 282 282 281 281 280 280 280 277 274 267 248 235 241 244 238 234 232 222 208 198 190 189 196 206 218 225 228 225 223 223 222 223 231 239 243 246 247 246 244 243 239 235 232 231 231 233 236 240 244 248 252 254 256 259 260 263
257 258 258 257 257 257 255 255 257 258 259 259 261 262 262 263 262 261 261 263 264 265 267 270 272 275 277 279 280 281 283 284 283 282 280 280 275 265 262 255 239 230 226 223 223 227 224 207 194 193 191 189 194 202 209 217 223 223 218 218 222 225 234 241 244 248 251 249 246 245 244 240 237 235 235 235 237 241 245 249 253 255 258 259 260 262
254 254 254 253 254 254 255 255 255 256 257 257 259 261 262 261 262 263 263 263 265 267 270 272 274 277 279 281 282 283 284 285 282 278 276 275 264 245 238 233 225 220 210 206 217 230 227 210 195 193 192 192 196 202 209 213 215 216 216 217 220 225 234 241 243 245 247 249 249 247 246 246 244 243 241 239 239 241 246 249 253 256 259 260 260 261
252 252 252 253 253 254 255 256 256 256 255 256 258 261 262 261 263 265 266 266 267 269 272 275 276 279 282 284 285 285 284 282 279 273 268 264 247 225 217 214 213 215 214 215 224 230 228 216 204 199 195 196 202 207 211 211 211 214 217 216 218 222 227 233 238 238 238 242 246 248 249 250 250 250 249 248 245 245 248 251 253 256 259 259 260 262
250 250 251 251 252 253 254 256 257 257 257 257 258 258 260 263 264 265 267 269 270 271 273 276 278 280 283 285 286 284 281 279 277 269 258 245 223 213 210 207 209 214 218 223 225 225 223 215 209 208 203 202 207 207 209 213 214 216 218 217 220 224 226 229 235 237 236 238 241 247 252 253 255 256 256 255 254 253 253 254 255 256 257 258 260 262
249 249 249 250 252 253 253 255 257 257 258 258 257 257 260 263 265 266 268 270 272 273 275 278 280 281 283 284 285 283 278 273 270 261 243 220 207 208 209 207 212 215 218 224 223 220 217 210 207 208 206 205 206 205 207 211 212 213 217 221 226 231 234 239 244 245 243 242 242 248 253 256 259 261 260 259 259 258 257 257 258 258 258 259 261 263
248 248 249 249 251 253 254 256 257 257 257 258 258 259 261 262 264 266 269 271 273 275 277 279 281 282 284 285 283 280 273 262 256 243 220 208 206 208 209 211 214 215 218 223 221 217 212 207 203 201 200 202 205 206 209 211 209 210 216 221 227 232 237 244 251 251 248 246 246 246 247 250 253 253 256 260 261 260 260 260 259 259 259 260 262 262
247 247 248 250 252 254 255 255 256 256 257 258 259 261 261 262 264 265 268 271 274 276 278 280 282 283 285 285 280 273 262 246 234 225 213 211 211 211 212 213 212 211 215 220 222 220 214 208 202 198 198 200 202 203 206 211 215 215 219 223 225 229 234 242 249 250 247 246 245 244 242 242 244 246 252 257 258 258 260 260 259 259 260 261 262 262
249 248 250 253 254 255 255 254 254 255 257 258 260 261 261 262 264 265 269 272 274 276 278 280 282 284 285 283 274 260 246 225 211 213 215 218 220 220 219 218 213 210 212 214 219 221 217 212 205 201 201 201 202 202 199 204 216 220 225 228 227 226 230 239 245 244 241 241 243 244 244 242 244 248 253 256 256 256 257 258 259 259 260 260 261 262
250 249 251 253 254 254 253 252 253 254 256 258 260 260 261 262 264 266 268 271 274 278 281 282 283 284 283 277 264 245 228 212 200 202 211 225 230 227 225 224 217 210 208 207 210 214 215 213 207 201 201 202 205 204 197 193 202 210 219 227 227 224 229 240 245 242 235 232 237 244 247 246 245 248 253 254 255 256 256 256 257 257 258 259 259 261
250 249 249 250 250 250 251 252 252 254 256 257 258 259 261 262 264 266 269 273 277 280 281 283 283 282 277 267 251 232 216 208 204 201 205 221 231 228 225 223 216 207 204 202 204 208 210 212 209 202 199 203 207 206 201 198 202 204 209 220 225 224 230 240 244 241 230 219 223 234 241 244 241 243 249 251 252 256 258 259 258 257 258 258 258 260
249 248 248 248 249 249 249 250 250 252 255 257 258 259 261 263 266 269 272 275 278 279 281 283 282 278 268 253 240 224 212 210 210 207 205 212 223 226 223 220 213 207 206 203 202 205 209 211 212 207 203 204 209 209 207 209 210 209 209 216 222 224 227 234 238 238 229 217 218 226 234 241 238 236 243 246 247 254 259 261 261 260 259 258 257 258
248 248 248 248 248 247 247 249 250 252 254 255 257 258 261 263 266 268 270 273 276 279 281 281 277 269 253 240 233 222 213 211 209 208 209 212 216 222 223 220 213 208 208 206 204 205 208 209 211 213 211 209 210 211 212 215 216 216 216 217 219 220 224 230 235 235 229 220 221 227 231 237 235 229 233 241 245 250 255 258 260 260 259 258 257 257
246 246 246 246 246 246 248 250 251 251 251 252 254 256 258 260 262 264 268 272 275 278 280 278 270 254 238 232 229 224 217 213 211 211 214 214 214 218 223 224 219 213 211 211 209 209 211 211 211 212 212 211 210 211 213 214 216 218 219 219 218 218 223 231 235 234 229 223 226 233 237 240 237 231 234 243 248 250 253 256 257 258 258 258 258 257
244 245 246 246 246 247 248 248 249 249 249 251 253 255 256 258 261 264 269 272 274 276 281 279 267 248 235 231 229 227 223 219 216 217 219 217 214 216 220 223 223 220 216 215 215 214 215 216 214 212 211 209 209 210 212 213 214 217 218 217 217 218 221 227 229 227 224 223 229 237 240 241 238 235 238 244 247 250 253 255 258 259 260 260 260 258
243 244 245 245 246 246 247 247 248 248 250 251 253 254 256 259 261 265 268 270 273 278 280 276 260 242 236 234 232 230 227 223 220 220 221 220 216 215 217 221 222 222 220 219 219 220 219 220 219 216 215 213 211 212 213 214 214 215 215 215 217 220 223 226 226 223 217 216 223 231 233 234 234 234 239 244 244 246 250 253 257 261 262 263 262 259
242 242 243 243 244 245 245 246 247 248 250 251 252 253 256 258 260 263 265 268 274 277 273 262 249 239 233 233 233 232 231 228 224 220 219 220 219 216 216 219 221 222 224 224 225 225 225 225 224 222 221 219 217 216 215 215 214 213 214 216 218 221 225 224 222 221 216 212 217 224 227 230 231 234 240 245 247 247 246 248 255 259 261 260 258 255
240 240 241 242 243 243 243 244 245 246 247 249 250 252 254 256 258 261 264 267 272 270 258 247 244 242 237 233 232 232 231 231 229 225 221 221 221 219 217 219 222 224 226 229 230 230 229 229 229 227 226 226 224 222 220 218 216 215 218 221 222 225 226 222 218 217 214 212 216 223 227 230 233 237 242 245 247 246 246 248 253 256 256 254 253 252
237 237 237 238 240 240 240 241 242 243 244 246 248 249 251 254 256 259 261 265 266 258 246 243 245 246 243 237 234 232 230 230 232 232 229 226 225 223 222 222 224 226 228 230 231 232 232 231 230 230 230 229 229 228 226 223 220 219 222 226 227 227 225 220 218 215 212 213 220 225 228 230 235 239 241 242 242 244 246 249 251 251 250 249 249 250
236 236 235 236 238 239 239 239 240 241 242 245 246 248 250 253 256 258 259 261 260 250 239 237 241 246 247 242 238 236 234 233 236 238 239 235 232 229 228 228 228 229 230 231 233 234 234 232 231 231 232 231 231 232 231 228 225 223 225 228 228 224 219 218 218 215 212 216 223 228 228 228 232 237 241 242 243 244 246 248 249 250 250 249 249 250
234 235 236 237 238 239 241 241 241 242 244 246 247 249 251 253 255 257 259 260 258 249 238 230 229 234 241 242 240 237 236 237 240 242 244 243 238 234 232 230 230 231 232 234 236 237 237 235 234 232 232 231 231 231 232 232 230 227 227 228 226 220 216 216 216 213 211 217 225 230 231 231 233 237 241 244 246 246 245 246 246 247 249 250 251 251
231 235 237 238 239 240 242 244 244 245 246 247 248 249 250 252 254 257 260 262 259 250 242 234 227 227 233 238 239 238 237 238 240 242 244 245 243 238 235 233 233 232 232 234 236 238 239 238 237 234 232 230 230 230 230 231 230 229 227 225 223 218 216 216 215 210 210 216 222 226 229 230 232 235 240 243 245 246 246 246 246 246 247 249 251 253
229 233 236 238 240 241 244 245 246 247 246 246 246 248 249 250 254 257 261 264 260 250 242 238 234 231 231 233 235 237 239 239 241 244 246 248 247 243 238 236 236 234 233 233 235 236 237 238 237 236 234 231 228 227 228 228 228 226 223 220 218 215 214 215 215 211 211 215 219 221 224 227 229 233 238 241 243 244 245 246 247 248 248 250 252 253
229 232 235 237 239 241 242 244 245 245 244 244 244 246 247 249 253 256 260 262 259 249 241 239 238 237 235 234 234 237 241 243 245 247 249 250 250 249 244 239 237 235 234 234 235 236 236 236 237 237 235 232 228 226 225 225 225 223 219 216 215 213 211 212 213 213 213 216 219 221 223 226 229 232 236 238 240 242 243 245 247 247 249 251 253 255
229 231 234 236 237 238 239 240 241 241 241 242 243 246 248 251 253 256 258 258 254 247 241 239 239 241 241 239 238 238 240 243 245 247 249 250 250 251 250 246 240 236 234 235 238 239 237 235 235 236 235 232 229 226 223 222 222 220 217 215 214 213 211 210 211 214 215 216 219 222 223 224 227 229 232 235 238 239 240 243 246 248 249 251 253 256
231 232 233 234 235 236 236 237 239 239 240 242 244 247 249 251 253 255 257 255 249 245 242 239 238 241 242 242 242 241 241 243 244 246 249 251 251 250 250 250 245 239 236 237 241 242 239 235 234 236 236 233 229 226 223 221 220 219 217 217 216 215 213 211 211 214 216 216 219 222 224 225 226 228 230 235 239 241 241 244 248 250 251 251 253 255
231 232 233 234 235 236 236 237 237 239 240 242 245 248 250 252 254 255 256 253 246 243 242 239 238 239 240 241 243 244 244 245 247 248 251 253 254 252 250 250 248 244 239 239 241 242 240 237 235 235 236 234 231 227 224 221 220 219 218 218 218 217 216 214 213 215 217 218 219 221 224 227 229 231 233 236 240 242 243 245 248 251 252 253 254 256
233 233 233 235 236 237 238 238 238 240 242 244 246 249 251 253 254 255 254 251 247 244 241 238 237 238 240 242 244 246 247 249 250 253 254 255 256 255 251 248 247 246 243 240 240 241 240 238 236 236 236 235 232 229 225 223 222 221 220 219 219 218 218 216 216 217 218 220 221 223 225 228 231 234 235 237 240 242 242 243 246 250 254 256 257 259
235 235 234 235 236 237 239 240 241 242 244 245 247 249 251 252 253 254 253 250 248 246 242 238 236 238 240 242 244 246 249 251 252 255 257 257 257 255 252 248 246 246 246 243 240 239 239 238 237 236 236 236 233 231 228 225 223 222 222 221 220 220 219 218 218 219 220 222 223 224 226 229 232 235 237 239 241 244 245 246 247 250 254 256 258 259
236 238 237 236 237 238 239 241 243 245 246 247 248 250 251 251 251 251 251 250 249 247 244 240 238 237 239 241 243 245 247 249 252 255 258 259 259 257 253 249 246 245 246 245 242 240 239 238 236 236 237 236 234 232 230 227 225 224 224 223 222 221 221 220 220 220 222 223 224 226 227 230 232 235 238 240 243 246 248 249 250 250 251 253 255 257
236 238 239 239 239 240 240 241 243 245 247 248 249 249 249 249 249 250 250 251 250 248 245 242 239 238 239 240 243 245 247 249 251 255 259 260 259 257 255 251 247 245 245 245 244 243 242 240 236 235 237 237 235 233 231 229 227 226 225 225 224 223 223 223 222 222 223 224 225 227 229 230 232 234 237 240 242 245 248 250 251 252 252 253 254 255
236 238 239 240 240 241 241 242 242 244 245 246 247 248 248 248 249 249 249 250 250 248 246 244 241 239 239 240 243 246 248 250 252 254 257 258 257 256 254 252 249 246 245 244 244 245 245 243 239 236 237 237 236 234 231 229 228 227 227 227 227 226 225 225 225 225 226 227 227 228 230 232 233 235 237 239 241 243 245 247 249 251 252 253 254 255
237 237 238 238 238 239 239 240 240 241 242 243 245 247 248 248 248 249 248 248 249 249 247 244 241 239 239 241 243 246 249 251 252 253 254 256 255 254 253 251 249 248 246 245 244 245 245 244 242 239 237 236 235 234 232 230 229 228 227 228 229 228 228 227 227 228 228 229 230 231 231 233 234 236 238 239 241 243 244 246 247 249 251 252 253 254
237 237 237 236 236 236 236 236 236 238 240 241 243 246 248 248 248 249 249 248 248 248 247 244 240 240 240 241 244 246 249 250 251 251 252 254 254 253 252 251 250 248 247 246 245 245 244 244 242 240 237 235 234 234 233 231 230 229 228 228 230 231 231 230 230 230 230 231 232 233 234 234 235 237 238 240 242 243 245 247 248 249 251 252 253 254
234 234 234 234 234 234 234 235 235 236 238 240 242 244 246 248 249 248 249 248 248 248 247 244 242 241 241 242 243 245 246 248 248 249 250 252 253 253 253 252 251 250 249 247 246 245 244 242 241 240 238 235 233 234 233 232 230 229 228 227 230 232 233 233 233 232 232 233 233 234 235 236 237 239 240 242 243 245 246 247 249 250 251 252 253 254
231 230 230 231 232 232 233 234 234 235 237 239 241 242 244 247 248 248 248 248 248 248 248 247 246 245 244 244 243 243 243 244 245 246 247 248 250 252 253 252 251 250 249 248 246 245 244 242 241 239 238 235 233 232 233 233 231 230 228 227 228 231 234 235 235 235 235 235 236 236 237 238 239 240 242 243 245 246 247 248 250 251 252 253 254 255
227 228 227 228 230 232 233 234 235 236 238 240 242 243 244 246 248 249 249 249 249 249 250 250 250 250 249 248 247 246 246 246 247 247 247 247 248 250 252 253 252 251 249 248 247 246 244 242 241 239 237 236 233 231 231 232 232 232 230 229 228 230 232 235 237 237 238 239 239 239 240 240 241 242 243 245 246 247 248 249 250 251 253 254 255 256
223 225 225 225 228 230 232 234 236 238 240 242 244 246 247 248 249 251 252 253 253 253 253 253 253 254 253 253 253 252 251 250 250 250 250 250 250 250 250 252 252 252 251 249 248 247 245 243 241 239 238 236 234 232 231 231 232 232 232 231 230 230 231 233 235 237 239 240 241 242 242 243 244 245 245 246 247 248 249 250 251 252 253 254 255 256
Height
10635 10638 10638 10637 10636 10635 10636 10638 10638 10639 10642 10643 10643 10647 10650 10651 10648 10645 10650 10658 10661 10665 10669 10670 10666 10661 10663 10666 10667 10669 10672 10674 10674 10678 10684 10684 10683 10685 10685 10685 10685 10686 10688 10690 10693 10694 10698 10705 10708 10708 10711 10715 10716 10719 10723 10727 10730 10732 10735 10739 10741 10744 10742 10737 10733 10731 10730 10731 10731 10730 10731 10731 10731 10731 10734 10737 10739 10742 10744 10745 10747 10748 10749 10748 10748 10747
10631 10632 10630 10629 10630 10631 10632 10632 10632 10635 10637 10638 10640 10644 10644 10641 10639 10637 10643 10652 10658 10660 10663 10667 10664 10658 10658 10659 10661 10664 10666 10667 10668 10673 10679 10679 10678 10678 10677 10678 10679 10680 10681 10682 10685 10688 10692 10699 10702 10702 10704 10707 10708 10711 10716 10721 10724 10726 10727 10728 10728 10729 10727 10722 10721 10720 10718 10720 10724 10725 10725 10726 10728 10730 10733 10734 10736 10738 10741 10743 10744 10745 10745 10745 10745 10745
10626 10624 10622 10622 10626 10628 10628 10627 10627 10629 10632 10633 10636 10637 10635 10634 10633 10632 10636 10645 10652 10652 10656 10663 10662 10657 10655 10653 10654 10656 10659 10661 10661 10666 10672 10674 10674 10672 10671 10672 10672 10674 10676 10675 10677 10682 10686 10692 10695 10695 10696 10698 10700 10704 10710 10714 10718 10720 10717 10716 10718 10719 10716 10715 10715 10713 10713 10715 10719 10720 10721 10723 10725 10728 10730 10731 10733 10736 10738 10740 10741 10742 10742 10742 10743 10743
10618 10615 10615 10619 10622 10623 10623 10623 10622 10624 10626 10628 10631 10630 10628 10630 10630 10628 10630 10639 10645 10646 10652 10657 10656 10655 10653 10650 10649 10649 10651 10655 10655 10656 10662 10667 10669 10667 10667 10668 10666 10667 10669 10668 10669 10674 10679 10684 10687 10686 10687 10690 10694 10699 10704 10709 10711 10710 10705 10706 10712 10714 10711 10710 10709 10708 10710 10713 10715 10717 10718 10720 10722 10724 10726 10728 10730 10733 10735 10736 10738 10740 10739 10740 10740 10740
10610 10607 10612 10616 10618 10618 10618 10618 10618 10620 10621 10622 10626 10623 10621 10625 10626 10623 10625 10632 10638 10643 10648 10649 10650 10653 10649 10646 10645 10645 10646 10648 10649 10649 10649 10655 10661 10661 10662 10664 10663 10662 10662 10661 10662 10667 10672 10676 10677 10677 10678 10682 10687 10694 10699 10702 10701 10697 10697 10701 10706 10708 10706 10704 10703 10704 10707 10710 10713 10714 10715 10717 10719 10720 10722 10725 10727 10730 10731 10731 10734 10736 10736 10737 10737 10737
10602 10603 10608 10610 10612 10613 10613 10613 10613 10614 10615 10618 10620 10617 10616 10620 10621 10618 10618 10624 10632 10639 10643 10642 10644 10649 10646 10641 10641 10641 10642 10643 10644 10643 10640 10642 10649 10652 10654 10658 10661 10659 10658 10657 10656 10659 10662 10666 10668 10668 10669 10674 10683 10692 10695 10690 10685 10685 10690 10695 10698 10700 10701 10700 10699 10700 10702 10705 10708 10709 10711 10714 10715 10716 10718 10721 10724 10727 10728 10728 10729 10731 10732 10734 10734 10734
10597 10598 10603 10605 10606 10607 10608 10608 10609 10608 10610 10613 10614 10612 10612 10615 10615 10614 10614 10619 10627 10630 10634 10636 10638 10641 10641 10638 10635 10634 10636 10638 10638 10638 10637 10634 10635 10641 10644 10650 10656 10656 10653 10652 10651 10651 10652 10654 10657 10658 10661 10669 10680 10688 10685 10674 10669 10674 10681 10687 10691 10693 10695 10696 10696 10696 10697 10699 10701 10703 10706 10710 10711 10712 10714 10716 10720 10723 10725 10725 10725 10726 10728 10730 10731 10730
10591 10593 10597 10599 10601 10602 10603 10604 10604 10603 10605 10607 10607 10607 10608 10609 10611 10612 10612 10615 10619 10622 10625 10629 10631 10634 10634 10631 10629 10628 10631 10633 10632 10634 10635 10628 10624 10628 10635 10642 10649 10650 10646 10644 10644 10643 10643 10645 10647 10652 10658 10666 10674 10678 10673 10662 10659 10667 10674 10681 10684 10685 10687 10690 10691 10691 10691 10693 10696 10699 10702 10704 10706 10707 10709 10712 10715 10718 10720 10721 10721 10721 10723 10726 10728 10727
10585 10588 10592 10594 10596 10598 10598 10599 10599 10600 10601 10601 10601 10602 10603 10605 10607 10609 10610 10610 10612 10616 10620 10620 10620 10625 10626 10624 10624 10625 10627 10628 10628 10628 10628 10624 10621 10620 10625 10634 10640 10641 10640 10637 10636 10635 10636 10638 10642 10648 10654 10661 10667 10669 10665 10656 10655 10662 10668 10674 10677 10678 10680 10683 10684 10685 10685 10687 10691 10694 10697 10700 10701 10702 10704 10707 10710 10713 10715 10717 10717 10718 10719 10721 10723 10723
10580 10583 10586 10588 10591 10593 10593 10594 10594 10596 10597 10594 10595 10598 10600 10602 10603 10604 10605 10605 10607 10614 10615 10611 10609 10614 10619 10619 10619 10621 10623 10623 10623 10621 10618 10617 10618 10616 10618 10628 10633 10632 10631 10628 10626 10627 10628 10632 10637 10643 10648 10654 10658 10658 10655 10651 10651 10659 10666 10670 10674 10674 10675 10677 10678 10678 10680 10683 10686 10688 10692 10695 10697 10698 10700 10702 10705 10707 10710 10712 10713 10714 10715 10716 10718 10718
10575 10577 10580 10583 10587 10589 10588 10588 10589 10591 10592 10589 10590 10594 10597 10598 10598 10599 10600 10601 10605 10610 10608 10602 10601 10606 10613 10614 10615 10617 10618 10617 10616 10615 10612 10608 10608 10610 10614 10622 10626 10623 10620 10618 10616 10617 10622 10627 10632 10638 10644 10650 10652 10650 10648 10646 10649 10657 10664 10668 10670 10671 10671 10673 10674 10675 10677 10680 10682 10684 10687 10690 10693 10694 10696 10698 10700 10702 10705 10708 10709 10710 10711 10712 10712 10713
10569 10572 10575 10578 10581 10583 10583 10583 10584 10585 10586 10586 10586 10590 10592 10593 10594 10594 10596 10598 10603 10604 10599 10595 10597 10601 10606 10609 10610 10611 10611 10611 10609 10607 10607 10603 10599 10603 10610 10615 10618 10615 10610 10609 10608 10611 10618 10623 10628 10634 10640 10648 10654 10654 10650 10646 10647 10654 10659 10663 10666 10668 10669 10670 10671 10672 10674 10677 10679 10680 10682 10686 10688 10690 10692 10693 10695 10697 10700 10703 10704 10705 10706 10707 10708 10709
10564 10567 10570 10573 10575 10578 10579 10578 10578 10580 10583 10582 10582 10585 10587 10589 10590 10590 10591 10595 10598 10597 10592 10592 10594 10597 10601 10604 10605 10604 10603 10603 10601 10599 10600 10599 10596 10600 10605 10607 10607 10606 10604 10603 10604 10607 10613 10618 10621 10625 10629 10638 10647 10652 10651 10646 10645 10649 10654 10659 10663 10665 10667 10668 10669 10670 10672 10673 10675 10676 10678 10680 10683 10685 10687 10688 10689 10692 10694 10697 10699 10700 10702 10703 10704 10705
10558 10562 10566 10568 10570 10572 10573 10572 10573 10576 10579 10578 10577 10580 10583 10584 10587 10587 10588 10590 10592 10592 10589 10588 10589 10592 10596 10599 10599 10597 10595 10594 10594 10593 10595 10596 10595 10596 10599 10599 10599 10600 10600 10599 10599 10603 10606 10610 10614 10616 10620 10625 10629 10631 10633 10634 10637 10643 10650 10655 10660 10662 10664 10665 10666 10667 10668 10670 10672 10673 10675 10676 10678 10680 10682 10683 10685 10687 10689 10691 10693 10695 10697 10698 10700 10701
10553 10556 10560 10563 10564 10565 10565 10567 10569 10571 10573 10574 10573 10576 10579 10580 10581 10583 10584 10586 10587 10588 10585 10584 10585 10587 10589 10592 10592 10591 10589 10588 10587 10588 10590 10592 10592 10593 10594 10593 10594 10597 10598 10597 10597 10599 10601 10603 10608 10612 10615 10618 10619 10618 10620 10625 10631 10638 10644 10650 10654 10656 10658 10659 10660 10662 10664 10666 10668 10670 10671 10672 10674 10676 10677 10679 10681 10682 10684 10685 10687 10689 10691 10693 10694 10696
10547 10551 10553 10556 10559 10560 10560 10561 10564 10566 10569 10570 10570 10571 10574 10574 10575 10576 10579 10582 10583 10583 10581 10579 10580 10582 10583 10585 10586 10585 10584 10583 10582 10583 10586 10587 10587 10589 10588 10587 10589 10593 10594 10594 10595 10595 10596 10598 10603 10607 10610 10612 10614 10616 10618 10623 10628 10632 10636 10641 10645 10647 10650 10652 10653 10655 10658 10660 10663 10665 10667 10668 10670 10671 10672 10675 10677 10678 10679 10681 10682 10684 10686 10687 10689 10691
10541 10545 10547 10550 10553 10556 10555 10555 10558 10561 10563 10565 10567 10568 10567 10568 10570 10571 10573 10576 10578 10579 10576 10573 10574 10578 10578 10579 10580 10578 10577 10577 10577 10578 10581 10582 10582 10582 10581 10581 10583 10586 10588 10589 10590 10590 10591 10594 10599 10602 10606 10609 10611 10614 10617 10620 10623 10625 10629 10634 10637 10638 10639 10641 10643 10646 10650 10654 10657 10660 10662 10664 10665 10667 10668 10670 10673 10674 10675 10676 10677 10679 10681 10682 10684 10685
10535 10539 10542 10544 10546 10550 10551 10549 10552 10556 10557 10560 10564 10563 10560 10561 10565 10566 10567 10569 10572 10573 10571 10567 10569 10573 10575 10574 10573 10571 10571 10572 10572 10573 10575 10577 10578 10577 10577 10577 10578 10580 10583 10584 10585 10585 10587 10590 10594 10596 10601 10605 10608 10610 10614 10617 10620 10623 10626 10630 10633 10633 10632 10633 10637 10642 10647 10651 10654 10656 10659 10660 10661 10663 10663 10665 10667 10669 10670 10671 10672 10674 10676 10677 10679 10680
10530 10534 10537 10539 10540 10543 10546 10545 10548 10550 10551 10554 10556 10557 10557 10557 10558 10559 10561 10563 10564 10566 10565 10562 10563 10568 10571 10570 10567 10565 10567 10568 10568 10569 10571 10573 10574 10574 10575 10575 10575 10577 10579 10580 10581 10582 10584 10587 10590 10593 10597 10602 10604 10606 10610 10614 10618 10622 10626 10630 10631 10632 10633 10636 10640 10644 10647 10650 10654 10657 10656 10656 10659 10660 10658 10660 10663 10664 10664 10665 10667 10669 10671 10672 10674 10675
10526 10530 10531 10533 10534 10536 10541 10543 10543 10544 10545 10547 10549 10551 10553 10552 10553 10553 10554 10556 10558 10559 10559 10557 10557 10562 10565 10564 10561 10560 10562 10563 10564 10567 10569 10570 10570 10570 10571 10572 10573 10575 10577 10578 10579 10581 10583 10585 10588 10592 10596 10599 10602 10605 10608 10612 10617 10622 10627 10628 10629 10631 10634 10638 10642 10644 10646 10649 10653 10654 10651 10652 10655 10654 10653 10655 10658 10658 10659 10660 10661 10663 10665 10667 10669 10670
10521 10525 10525 10527 10527 10531 10538 10538 10536 10537 10539 10540 10543 10545 10546 10546 10547 10548 10548 10550 10551 10552 10553 10552 10553 10556 10558 10557 10556 10555 10556 10558 10560 10563 10566 10567 10566 10567 10569 10571 10573 10575 10577 10576 10576 10578 10581 10584 10588 10591 10595 10597 10600 10604 10608 10613 10618 10623 10625 10625 10627 10631 10635 10639 10641 10642 10644 10647 10649 10648 10647 10649 10650 10648 10649 10652 10653 10653 10654 10655 10656 10657 10659 10661 10663 10664
10515 10521 10520 10520 10522 10527 10533 10531 10529 10531 10532 10534 10537 10538 10539 10539 10540 10542 10543 10544 10544 10545 10547 10548 10549 10550 10551 10552 10552 10551 10552 10554 10555 10556 10560 10562 10562 10563 10565 10568 10571 10574 10574 10573 10573 10574 10577 10581 10585 10589 10592 10595 10598 10601 10606 10612 10617 10620 10622 10623 10625 10630 10635 10636 10636 10638 10640 10643 10645 10644 10643 10646 10646 10644 10646 10648 10648 10648 10648 10649 10650 10652 10654 10656 10657 10658
10509 10515 10515 10514 10517 10522 10525 10524 10524 10525 10526 10528 10530 10531 10532 10532 10533 10536 10537 10538 10538 10539 10541 10544 10545 10544 10545 10546 10547 10547 10548 10549 10550 10551 10555 10559 10559 10559 10561 10563 10567 10569 10569 10569 10569 10570 10573 10577 10580 10585 10589 10592 10595 10597 10600 10604 10609 10614 10617 10618 10621 10627 10631 10630 10630 10633 10636 10640 10642 10641 10640 10641 10641 10641 10642 10642 10642 10642 10642 10644 10646 10647 10648 10650 10652 10653
10502 10506 10507 10507 10510 10515 10516 10517 10518 10519 10520 10522 10523 10524 10524 10525 10527 10530 10532 10534 10535 10534 10535 10538 10539 10539 10538 10539 10541 10542 10543 10544 10545 10546 10550 10554 10554 10554 10555 10559 10562 10564 10565 10565 10565 10567 10571 10573 10576 10581 10585 10588 10591 10593 10596 10599 10602 10605 10609 10612 10617 10624 10626 10624 10625 10629 10632 10634 10636 10636 10634 10634 10634 10635 10635 10634 10634 10635 10636 10638 10641 10642 10644 10645 10646 10647
10494 10497 10500 10501 10504 10508 10509 10509 10511 10514 10515 10516 10517 10518 10518 10520 10523 10526 10527 10530 10531 10530 10530 10532 10532 10532 10532 10533 10535 10537 10538 10539 10540 10541 10544 10546 10546 10547 10550 10553 10557 10560 10561 10562 10562 10565 10568 10572 10575 10578 10581 10584 10586 10589 10593 10596 10599 10601 10604 10608 10613 10619 10621 10620 10621 10625 10627 10629 10629 10627 10627 10628 10628 10629 10629 10627 10628 10631 10631 10634 10636 10637 10638 10639 10640 10641
10487 10490 10493 10495 10497 10500 10500 10502 10506 10510 10510 10510 10511 10513 10515 10517 10520 10520 10521 10525 10526 10525 10525 10525 10526 10526 10525 10527 10529 10531 10533 10534 10535 10538 10539 10539 10541 10542 10544 10548 10551 10554 10557 10558 10560 10562 10565 10568 10572 10575 10578 10580 10581 10584 10587 10591 10594 10598 10601 10605 10610 10614 10616 10616 10618 10621 10623 10625 10624 10622 10623 10624 10624 10626 10624 10621 10623 10627 10627 10628 10630 10631 10632 10633 10634 10635
10480 10482 10485 10488 10491 10493 10495 10498 10502 10504 10503 10503 10506 10509 10510 10511 10513 10513 10515 10520 10521 10521 10520 10519 10520 10520 10519 10520 10523 10525 10527 10529 10531 10534 10534 10535 10536 10537 10539 10542 10545 10549 10552 10555 10557 10559 10561 10564 10568 10571 10574 10576 10578 10580 10582 10585 10589 10592 10597 10602 10607 10612 10613 10613 10614 10617 10619 10620 10620 10620 10620 10620 10621 10623 10620 10616 10618 10621 10622 10622 10624 10625 10626 10626 10628 10629
10473 10476 10479 10483 10485 10487 10490 10492 10495 10496 10496 10498 10501 10502 10502 10504 10506 10508 10511 10515 10516 10515 10514 10514 10514 10515 10514 10515 10518 10520 10521 10524 10527 10529 10530 10532 10533 10533 10534 10536 10539 10543 10546 10550 10553 10556 10558 10560 10563 10566 10569 10571 10573 10576 10578 10581 10584 10588 10593 10598 10602 10606 10607 10605 10606 10609 10613 10616 10617 10616 10616 10616 10617 10618 10616 10612 10613 10615 10616 10618 10619 10619 10620 10621 10623 10624
10465 10469 10473 10476 10478 10480 10482 10485 10487 10488 10490 10493 10494 10494 10495 10498 10501 10504 10507 10508 10509 10509 10509 10509 10510 10510 10510 10511 10513 10515 10517 10519 10522 10524 10526 10528 10529 10530 10531 10532 10534 10537 10540 10544 10548 10551 10554 10555 10558 10561 10564 10566 10569 10571 10573 10577 10580 10584 10588 10593 10597 10600 10600 10600 10602 10605 10609 10612 10613 10612 10611 10610 10611 10612 10610 10608 10609 10611 10613 10614 10614 10613 10614 10616 10618 10619
10457 10461 10466 10468 10469 10472 10476 10478 10479 10482 10485 10487 10488 10488 10491 10494 10496 10499 10502 10503 10503 10503 10503 10505 10505 10505 10506 10508 10509 10510 10513 10515 10517 10519 10521 10524 10526 10527 10528 10529 10531 10533 10535 10538 10542 10545 10548 10551 10553 10556 10558 10561 10564 10566 10568 10571 10575 10580 10583 10587 10591 10595 10596 10598 10600 10603 10606 10609 10610 10608 10605 10604 10605 10606 10605 10604 10605 10607 10609 10609 10609 10608 10609 10611 10612 10613
10450 10455 10459 10461 10462 10466 10469 10471 10473 10477 10479 10480 10482 10483 10486 10488 10490 10493 10496 10498 10498 10498 10498 10500 10501 10501 10502 10504 10505 10506 10509 10511 10513 10515 10517 10520 10522 10524 10525 10526 10527 10529 10531 10533 10536 10539 10542 10545 10548 10550 10552 10555 10557 10560 10563 10566 10571 10576 10579 10581 10586 10591 10592 10593 10596 10600 10603 10606 10605 10602 10600 10600 10601 10601 10601 10600 10601 10603 10604 10604 10604 10604 10605 10606 10607 10607
10443 10449 10452 10452 10454 10458 10462 10464 10467 10471 10472 10473 10476 10479 10480 10482 10485 10487 10490 10492 10493 10494 10494 10494 10495 10496 10498 10500 10501 10502 10504 10506 10508 10510 10513 10515 10518 10519 10521 10522 10524 10525 10527 10528 10530 10533 10536 10540 10543 10545 10547 10549 10551 10553 10557 10561 10567 10571 10574 10577 10582 10586 10587 10589 10592 10596 10598 10599 10598 10596 10595 10596 10597 10597 10596 10596 10597 10598 10598 10598 10598 10599 10600 10601 10601 10603
10436 10441 10443 10444 10447 10450 10454 10457 10461 10464 10466 10468 10471 10473 10475 10477 10479 10481 10484 10487 10488 10490 10491 10489 10490 10492 10494 10496 10498 10499 10501 10503 10504 10506 10508 10511 10513 10515 10517 10518 10520 10521 10522 10524 10526 10528 10531 10534 10537 10539 10541 10543 10545 10547 10551 10555 10561 10566 10569 10572 10576 10579 10581 10583 10587 10590 10591 10592 10592 10590 10590 10592 10593 10592 10592 10591 10591 10593 10593 10593 10593 10594 10594 10595 10596 10598
10429 10433 10436 10438 10441 10444 10446 10451 10455 10458 10461 10464 10466 10468 10470 10472 10474 10477 10479 10482 10484 10485 10486 10485 10486 10488 10490 10492 10494 10496 10498 10499 10500 10502 10504 10506 10508 10510 10512 10514 10515 10516 10518 10520 10521 10523 10526 10529 10532 10534 10536 10538 10539 10542 10545 10549 10555 10559 10563 10566 10569 10572 10575 10577 10580 10583 10585 10586 10586 10585 10586 10587 10587 10587 10586 10585 10585 10587 10587 10588 10588 10589 10589 10590 10591 10592
10424 10426 10429 10432 10434 10437 10440 10444 10448 10453 10457 10459 10459 10462 10465 10467 10469 10471 10474 10477 10479 10480 10480 10481 10483 10484 10485 10487 10489 10492 10494 10496 10497 10498 10499 10501 10503 10505 10507 10509 10511 10512 10514 10515 10517 10518 10521 10524 10526 10529 10531 10532 10534 10537 10540 10544 10548 10553 10557 10560 10563 10566 10569 10572 10574 10577 10580 10580 10580 10579 10580 10581 10581 10581 10580 10580 10579 10580 10581 10582 10583 10583 10584 10584 10585 10585
10419 10421 10423 10426 10429 10431 10434 10438 10442 10448 10451 10453 10454 10456 10459 10462 10464 10466 10468 10471 10474 10475 10475 10477 10479 10480 10481 10482 10484 10487 10489 10491 10493 10494 10494 10496 10498 10500 10502 10504 10506 10508 10510 10511 10512 10514 10516 10519 10521 10522 10524 10527 10529 10532 10535 10539 10542 10546 10550 10554 10557 10560 10563 10567 10570 10572 10573 10574 10573 10573 10573 10575 10576 10576 10575 10574 10574 10575 10576 10577 10577 10577 10577 10577 10578 10578
10413 10415 10419 10421 10423 10426 10430 10433 10437 10442 10445 10447 10449 10451 10453 10456 10458 10461 10463 10465 10467 10469 10470 10472 10474 10475 10476 10477 10480 10482 10484 10485 10487 10488 10489 10491 10493 10495 10497 10499 10501 10503 10505 10506 10507 10509 10511 10514 10515 10516 10518 10521 10524 10527 10530 10533 10536 10540 10544 10547 10549 10553 10557 10561 10564 10565 10566 10567 10567 10567 10568 10569 10570 10570 10570 10570 10570 10570 10571 10572 10570 10569 10570 10570 10571 10571
10408 10410 10412 10414 10416 10420 10425 10428 10431 10436 10441 10442 10443 10445 10447 10450 10453 10455 10458 10460 10461 10463 10465 10467 10469 10470 10471 10473 10474 10476 10477 10479 10481 10482 10484 10486 10488 10491 10493 10494 10496 10498 10500 10501 10502 10503 10505 10508 10510 10511 10513 10515 10518 10522 10525 10528 10530 10533 10537 10539 10542 10546 10550 10554 10556 10557 10559 10561 10561 10561 10563 10564 10564 10564 10564 10564 10564 10564 10565 10565 10562 10562 10564 10565 10566 10567
10402 10402 10403 10406 10410 10414 10419 10422 10426 10431 10435 10435 10436 10439 10442 10444 10446 10449 10452 10455 10456 10457 10459 10461 10463 10465 10466 10467 10469 10470 10472 10474 10475 10477 10479 10481 10484 10486 10488 10489 10491 10493 10495 10496 10498 10498 10500 10503 10505 10506 10508 10511 10514 10517 10520 10522 10524 10527 10530 10532 10535 10539 10543 10546 10548 10550 10552 10554 10555 10555 10556 10557 10557 10557 10558 10558 10558 10558 10559 10558 10556 10556 10557 10559 10561 10562
10393 10394 10396 10401 10406 10409 10414 10418 10421 10424 10427 10429 10430 10432 10435 10437 10440 10443 10446 10449 10452 10452 10453 10455 10457 10459 10461 10463 10464 10466 10467 10469 10471 10473 10475 10477 10479 10481 10483 10484 10486 10487 10489 10491 10493 10494 10495 10497 10500 10502 10503 10506 10509 10512 10515 10517 10518 10520 10523 10525 10528 10532 10535 10538 10541 10542 10545 10547 10548 10550 10551 10551 10551 10551 10552 10552 10551 10550 10551 10550 10549 10549 10550 10552 10555 10557
10384 10387 10393 10398 10402 10405 10409 10413 10416 10419 10421 10423 10425 10426 10428 10430 10433 10436 10439 10443 10445 10446 10447 10449 10451 10453 10455 10458 10460 10461 10463 10465 10467 10468 10470 10472 10473 10475 10476 10478 10480 10482 10484 10486 10488 10489 10490 10492 10495 10497 10498 10501 10504 10507 10509 10511 10513 10515 10517 10519 10521 10524 10528 10530 10533 10535 10538 10540 10542 10543 10544 10544 10544 10544 10544 10544 10542 10541 10542 10544 10544 10545 10546 10548 10550 10551
10376 10381 10388 10394 10396 10400 10405 10408 10411 10414 10416 10417 10419 10420 10421 10423 10426 10429 10431 10435 10438 10439 10441 10443 10445 10447 10450 10453 10455 10456 10458 10460 10462 10463 10464 10465 10467 10468 10470 10472 10474 10476 10478 10481 10482 10484 10486 10488 10490 10491 10493 10495 10497 10500 10503 10506 10507 10509 10510 10512 10515 10517 10520 10523 10526 10529 10531 10533 10534 10535 10536 10537 10537 10537 10537 10537 10536 10535 10536 10539 10541 10542 10542 10543 10544 10545
10370 10374 10381 10387 10390 10394 10400 10404 10406 10408 10409 10411 10413 10414 10415 10417 10419 10421 10424 10427 10430 10433 10435 10437 10439 10441 10443 10446 10448 10450 10452 10454 10456 10458 10459 10460 10461 10462 10463 10466 10468 10470 10473 10475 10477 10479 10481 10483 10485 10486 10488 10489 10491 10494 10497 10499 10501 10503 10504 10506 10508 10510 10513 10516 10518 10521 10523 10524 10526 10528 10529 10530 10531 10531 10530 10531 10531 10531 10531 10532 10534 10536 10536 10537 10538 10540
10365 10368 10374 10379 10384 10388 10394 10398 10400 10401 10402 10405 10406 10406 10408 10410 10412 10414 10417 10420 10423 10426 10429 10431 10433 10435 10437 10439 10442 10444 10447 10449 10451 10452 10454 10455 10456 10456 10457 10459 10461 10464 10466 10468 10471 10473 10475 10477 10479 10481 10482 10484 10485 10487 10490 10493 10494 10496 10498 10500 10502 10504 10506 10509 10511 10514 10515 10516 10518 10520 10521 10522 10523 10524 10524 10524 10525 10525 10525 10526 10527 10528 10529 10530 10532 10534
10361 10365 10369 10374 10378 10382 10386 10390 10393 10395 10396 10397 10397 10397 10400 10404 10406 10408 10412 10414 10416 10419 10422 10424 10426 10428 10431 10433 10436 10438 10441 10443 10445 10446 10448 10449 10450 10450 10451 10453 10454 10457 10459 10461 10464 10466 10468 10470 10473 10475 10477 10478 10479 10481 10483 10486 10488 10490 10491 10493 10495 10498 10500 10502 10504 10507 10508 10510 10512 10513 10514 10515 10516 10516 10517 10517 10517 10518 10518 10519 10520 10520 10522 10523 10524 10525
10357 10361 10366 10370 10373 10376 10379 10382 10386 10387 10388 10389 10389 10390 10393 10397 10400 10403 10406 10408 10410 10412 10415 10418 10420 10423 10425 10427 10430 10433 10435 10437 10439 10440 10441 10443 10444 10445 10445 10447 10448 10450 10452 10454 10457 10459 10461 10463 10466 10468 10470 10471 10473 10475 10477 10479 10481 10483 10485 10487 10489 10491 10493 10495 10497 10500 10502 10503 10505 10506 10506 10507 10508 10508 10509 10509 10510 10510 10511 10512 10513 10513 10514 10515 10516 10517
10354 10357 10361 10365 10368 10370 10373 10376 10378 10380 10381 10382 10384 10386 10388 10391 10395 10398 10400 10402 10404 10406 10409 10412 10414 10417 10420 10422 10424 10426 10428 10430 10432 10434 10435 10436 10438 10439 10439 10441 10442 10443 10445 10447 10450 10452 10454 10456 10458 10461 10463 10465 10467 10469 10470 10472 10474 10476 10479 10480 10482 10484 10486 10488 10490 10492 10493 10495 10496 10497 10499 10499 10500 10501 10501 10501 10502 10503 10504 10505 10506 10507 10507 10507 10508 10509
10349 10352 10355 10358 10361 10364 10366 10368 10371 10373 10375 10377 10380 10381 10383 10386 10389 10392 10394 10396 10398 10401 10403 10406 10409 10411 10414 10416 10418 10420 10422 10424 10426 10427 10428 10430 10431 10432 10433 10434 10436 10437 10438 10441 10443 10445 10446 10449 10451 10453 10456 10458 10460 10462 10464 10465 10467 10469 10471 10473 10475 10476 10478 10480 10482 10484 10485 10486 10487 10488 10490 10491 10493 10494 10495 10495 10495 10496 10497 10498 10499 10499 10499 10499 10499 10501
10343 10346 10349 10352 10355 10358 10360 10362 10365 10368 10370 10372 10374 10376 10379 10381 10383 10386 10389 10391 10393 10396 10398 10400 10403 10406 10408 10410 10412 10414 10416 10418 10419 10420 10422 10423 10423 10424 10426 10427 10428 10430 10431 10433 10435 10437 10438 10441 10443 10445 10448 10450 10452 10455 10456 10458 10459 10461 10463 10466 10468 10469 10471 10472 10474 10475 10476 10477 10478 10479 10481 10484 10486 10487 10488 10488 10489 10490 10490 10491 10491 10491 10491 10491 10492 10493
10338 10340 10343 10347 10350 10353 10356 10358 10360 10363 10365 10367 10369 10372 10374 10377 10379 10382 10384 10386 10389 10391 10393 10396 10398 10400 10402 10404 10406 10408 10410 10411 10413 10414 10415 10416 10417 10418 10419 10420 10421 10422 10424 10425 10427 10429 10431 10432 10434 10437 10439 10441 10444 10446 10448 10449 10451 10453 10455 10458 10460 10462 10463 10464 10466 10467 10467 10468 10470 10472 10474 10476 10477 10478 10479 10480 10480 10481 10482 10482 10483 10483 10484 10484 10484 10484
10333 10336 10339 10343 10346 10348 10351 10354 10356 10358 10360 10362 10365 10367 10370 10373 10375 10377 10380 10382 10384 10386 10388 10391 10393 10394 10396 10398 10400 10401 10403 10404 10405 10407 10408 10409 10410 10411 10411 10412 10413 10415 10416 10418 10419 10421 10422 10424 10426 10428 10430 10433 10435 10437 10439 10441 10443 10444 10446 10448 10451 10453 10455 10457 10458 10458 10459 10460 10462 10464 10466 10467 10468 10469 10470 10471 10471 10472 10472 10473 10474 10474 10475 10475 10475 10475